Miscellaneous Local Product
Issued by NWS North Platte, NE

Home | Current Version | Previous Version | Text Only | Print | Product List | Glossary On
Versions: 1 2 3 4 5 6 7 8 9 10 11 12 13 14 15 16 17 18 19 20 21 22 23 24 25 26 27 28 29 30 31 32 33 34 35 36 37 38 39 40 41 42 43 44 45 46 47 48 49 50
000
AXUS43 KLBF 181210
MISLBF


WESTERN AND NORTH CENTRAL NEBRASKA HOURLY WEATHER ROUNDUP
NATIONAL WEATHER SERVICE NORTH PLATTE NE
700 AM CDT THU SEP 18 2014

***STATIONS NOT REPORTING VARIABLES SUCH AS SKY/WEATHER OR
PRESSURE ARE PROVIDED BY THE NEBRASKA DEPARTMENT OF
ROADS...RAWS...AND APRS NETWORKS...AND ARE NOT UNDER
NATIONAL WEATHER SERVICE QUALITY CONTROL***

...OBSERVATIONS IN AND NEAR THE EASTERN PANHANDLE OF NEBRASKA...

CITY           SKY/WX    TMP DP  RH WIND       PRES   REMARKS
PINE RIDGE     CLOUDY    62  60  93 SW7       29.91S
CHADRON        CLEAR     48  47  96 W5        29.91S
ALLIANCE       CLOUDY    62  60  93 S12       29.94S
SIDNEY         FOG       57  56  96 CALM      29.99R VSB<1/4
WHITECLAY        N/A     62  59  90 S8          N/A
RUSHVILLE        N/A     63  62  96 SW14        N/A
CRESCENT LAKE    N/A     63  61  93 S6          N/A
LISCO            N/A     66  63  88 SE7         N/A
BIG SPRINGS      N/A     65  64  95 CALM        N/A
$$

...OBSERVATIONS IN NORTH CENTRAL NEBRASKA...

CITY           SKY/WX    TMP DP  RH WIND       PRES   REMARKS
VALENTINE      CLOUDY    61  60  97 S6        29.94S FOG
THEDFORD       CLOUDY    60  60  99 S12       29.97S VSB 1/2
AINSWORTH      FOG       59  59 100 S12       29.95S VSB 3/4
O`NEILL        CLEAR     60  59  98 S8        29.97R
ORD            FOG       59  58  96 S8        29.96R VSB 1/2
BROKEN BOW     FOG       61  60  97 S7        29.97S VSB 1/4
SPRINGVIEW       N/A     59  57  92 CALM        N/A
ROSE             N/A     62  62  99 SE8         N/A
NEWPORT          N/A     60  60  99 SE6         N/A
COMSTOCK         N/A     64  64  99 S8          N/A
CHAMBERS         N/A     58  57  96 S3          N/A
$$

...OBSERVATIONS IN SOUTHWEST NEBRASKA AND FAR NORTHEAST COLORADO...

CITY           SKY/WX    TMP DP  RH WIND       PRES   REMARKS
WRAY           FOG      N/A N/A N/A E3        29.96S VSB 1/2
HOLYOKE        CLOUDY    66  63  88 SE6       29.97R FOG
IMPERIAL       FOG       64  63  96 SE7       29.96R VSB 1/2
OGALLALA       CLOUDY    65  64  99 E3        29.96S FOG
NORTH PLATTE   FOG       59  58  96 SE7       29.97R VSB 1/2
MCCOOK         FOG       63  62  97 E7        29.95S VSB 3/4
LEXINGTON      CLOUDY    61  60  97 SE9       29.98R FOG
PAXTON           N/A     63  61  94 CALM        N/A
SUTHERLAND       N/A     61  58  92 CALM        N/A
BRADY            N/A     59  58  95 CALM        N/A
GOTHENBURG       N/A     60  58  93 E7          N/A
CALLAWAY         N/A     61  60  97 SE9         N/A
$$

...SOME WEATHER OBSERVATIONS FROM AROUND THE REGION...

CITY           SKY/WX    TMP DP  RH WIND       PRES   REMARKS
DENVER         PTCLDY    59  42  53 SW12      30.04S
LARAMIE        CLEAR     43  35  73 S7        30.17S
CHEYENNE       CLEAR     53  39  59 W14       30.08S
SCOTTSBLUFF    FOG       54  54 100 SW3       29.95S VSB 1/4
RAPID CITY     CLEAR     49  48  97 S3        29.87F FOG
PIERRE         TSTM      56  53  90 SE13      29.88F
WINNER         FAIR      58  56  93 E6        29.93R
SIOUX FALLS    PTCLDY    57  54  89 SE7       29.99R
OMAHA          CLOUDY    60  57  89 SE10      30.01R FOG
GRAND ISLAND   FOG       61  60  97 SE8       29.97S VSB 3/4
KANSAS CITY    FOG       60  59  96 E9        30.00R VSB 1/2
WICHITA        MOCLDY    70  67  90 SE14      29.92R
HAYS           CLOUDY    66  63  88 E9        29.91S
LIBERAL        CLEAR     61  55  82 W8        29.95R
GOODLAND       CLOUDY    63  63 100 E5        29.97R FOG
$$



USA.gov is the U.S. government's official web portal to all federal, state and local government web resources and services.